User: anonymous   Login
Location: Newark
(32.9900°N, 111.5400°W)
Time: 09:01:20
(UTC+00:00)
Language:

Envisat - Orbit

View from above orbital plane
View from above orbital plane
View from above satellite
View from above satellite

Ground track
Ground track

The orbit data is extracted from the following two-line orbital elements,

1 27386U 02009A   19347.10301941  .00000011  00000-0  17168-4 0  9999
2 27386  98.1409 358.9754 0001329  90.4222 310.6462 14.37965668931699
Epoch (UTC): 13 December 2019 02:28:20
Eccentricity: 0.0001329
inclination: 98.1409°
perigee height: 764 km
apogee height: 766 km
right ascension of ascending node: 358.9754°
argument of perigee: 90.4222°
revolutions per day: 14.37965668
mean anomaly at epoch: 310.6462°
orbit number at epoch: 93169

The dashed part of the orbit path shows where the satellite is in the earth's shadow,  

DLR